Stations météo

réclame
Mon MeteoGroup
Andernach, Allemagne (10520): Température de l'air & dewpoint: 17.10.2019 18:00:00 - 23.10.2019 18:00:00 (CEST)Andernach, Allemagne (10520): Température de l'air 5cm & Température de l'air -5cm: 17.10.2019 18:00:00 - 23.10.2019 18:00:00 (CEST)Andernach, Allemagne (10520): Température de l'air -20cm & Température de l'air -100cm: 17.10.2019 18:00:00 - 23.10.2019 18:00:00 (CEST)Andernach, Allemagne (10520): Vitesse du vent & gusts: 17.10.2019 18:00:00 - 23.10.2019 18:00:00 (CEST)Andernach, Allemagne (10520): Direction du vent: 17.10.2019 18:00:00 - 23.10.2019 18:00:00 (CEST)Andernach, Allemagne (10520): reduced air pressure: 17.10.2019 18:00:00 - 23.10.2019 18:00:00 (CEST)Andernach, Allemagne (10520): visibility: 17.10.2019 18:00:00 - 23.10.2019 18:00:00 (CEST)Andernach, Allemagne (10520): Ensoleillement: 17.10.2019 18:00:00 - 23.10.2019 18:00:00 (CEST)Andernach, Allemagne (10520): Quantités de précipitations: 17.10.2019 18:00:00 - 23.10.2019 18:00:00 (CEST)
Date & Time tt [°C] td [°C] tt 5cm [°C] tt -5cm [°C] tt -20cm [°C] tt -100cm [°C] ff [km/h] ff [knt] fx [km/h] fx [knt] dd ppp [hPa] vv [km] sd [min] rr [mm]
23.10.2019 18:00:00 14,7 11,7 14,2 13,1 12,2 14,7 10 5 18 10 ESE 1012,9 20 0 0,0
23.10.2019 17:00:00 14,7 11,6 14,6 13,1 12,0 14,7 12 6 24 13 SE 1013,6 19 0 0,0
23.10.2019 16:00:00 14,6 11,5 14,8 13,0 11,9 14,7 14 8 24 13 ESE 1013,9 17 0 0,0
23.10.2019 15:00:00 14,0 11,3 14,5 12,7 11,7 14,7 10 6 22 12 ESE 1015,1 16 0 0,0
23.10.2019 14:00:00 13,3 10,8 14,1 12,2 11,6 14,7 6 3 9 5 SE 1016,0 14 0 0,0
23.10.2019 13:00:00 12,3 10,2 12,7 11,6 11,5 14,7 2 1 5 3 E 1016,8 16 0 0,0
23.10.2019 12:00:00 11,2 9,6 11,7 10,9 11,4 14,7 4 2 6 3 NNW 1017,2 23 0 0,0
23.10.2019 11:00:00 10,1 9,1 10,5 10,1 11,5 14,7 4 2 9 5 SSE 1017,6 20 0 0,0
23.10.2019 10:00:00 8,6 8,6 9,1 9,2 11,6 14,7 3 2 5 3 S 1018,2 12 0 0,0
23.10.2019 09:00:00 7,3 7,3 7,5 8,6 11,8 14,7 2 1 7 4 SW 1019,1 0,7 0 0,0
23.10.2019 08:00:00 6,2 6,1 5,3 8,7 11,9 14,7 5 3 6 4 SSW 1019,1 12 0 0,0
23.10.2019 07:00:00 6,1 6,1 3,7 9,0 12,1 14,7 3 2 6 3 SSW 1019,3 8 0 0,0
23.10.2019 06:00:00 6,5 6,5 5,0 9,2 12,3 14,7 6 3 11 6 SSW 1019,8 16 0 0,0
23.10.2019 05:00:00 6,5 6,4 4,8 9,6 12,5 14,7 3 2 10 6 SW 1020,3 16 0 0,0
23.10.2019 04:00:00 7,0 6,9 6,0 9,9 12,7 14,7 7 4 9 5 SSW 1020,9 16 0 0,0
23.10.2019 03:00:00 7,1 7,1 5,0 10,3 12,9 14,7 4 2 7 4 S 1021,7 13 0 0,0
23.10.2019 02:00:00 7,8 7,6 6,2 10,8 13,1 14,7 3 2 8 4 SSW 1022,1 20 0 0,0
23.10.2019 01:00:00 8,4 8,1 7,0 11,3 13,3 14,7 3 2 7 4 WSW 1022,6 22 0 0,0
23.10.2019 00:00:00 9,1 8,6 7,3 11,7 13,5 14,7 5 3 7 4 SSW 1023,2 28 0 0,0
22.10.2019 23:00:00 9,6 8,9 8,2 12,1 13,6 14,7 3 1 10 6 SW 1023,5 28 0 0,0
22.10.2019 22:00:00 11,3 9,8 9,2 12,6 13,8 14,7 6 3 11 6 NW 1023,7 32 0 0,0
22.10.2019 21:00:00 10,7 10,0 8,6 13,2 13,9 14,7 3 1 6 3 NW 1024,0 26 0 0,0
22.10.2019 20:00:00 11,2 9,9 8,9 14,0 14,0 14,7 3 2 5 3 SSW 1023,9 41 0 0,0
22.10.2019 19:00:00 13,4 9,8 9,0 15,1 13,9 14,7 3 2 11 6 NW 1024,0 48 0 0,0
22.10.2019 18:00:00 15,3 9,0 13,5 16,4 13,7 14,7 4 2 9 5 NNW 1023,0 36 35 0,0
22.10.2019 17:00:00 16,6 8,9 18,1 17,0 13,3 14,7 2 1 8 5 S 1023,4 34 57 0,0
22.10.2019 16:00:00 16,5 8,8 18,8 17,0 13,0 14,7 4 2 12 7 S 1023,7 58 59 0,0
22.10.2019 15:00:00 16,2 9,4 20,8 16,5 12,6 14,7 3 2 11 6 SE 1024,0 60 59 0,0
22.10.2019 14:00:00 15,7 9,7 20,5 15,4 12,3 14,7 3 1 9 5 W 1024,9 42 51 0,0
22.10.2019 13:00:00 14,5 8,9 17,6 14,1 12,0 14,7 2 1 7 4 E 1025,6 44 50 0,0
22.10.2019 12:00:00 13,1 9,1 14,9 12,8 11,9 14,7 4 2 10 5 SSE 1026,0 45 36 0,0
22.10.2019 11:00:00 - - - 11,3 11,8 14,7 - - - - - - - - -
22.10.2019 10:00:00 - - - - - - - - - - - - - - -
22.10.2019 09:00:00 - - - - - - - - - - - - - - -
22.10.2019 08:00:00 - - - - - - - - - - - - - - -
22.10.2019 07:00:00 - - - - - - - - - - - - - - -
22.10.2019 06:00:00 - - - - - - - - - - - - - - -
22.10.2019 05:00:00 - - - - - - - - - - - - - - -
22.10.2019 04:00:00 - - - - - - - - - - - - - - -
22.10.2019 03:00:00 - - - - - - - - - - - - - - -
22.10.2019 02:00:00 - - - - - - - - - - - - - - -
22.10.2019 01:00:00 - - - - - - - - - - - - - - -
22.10.2019 00:00:00 - - - - - - - - - - - - - - -
21.10.2019 23:00:00 - - - - - - - - - - - - - - -
21.10.2019 22:00:00 - - - - - - - - - - - - - - -
21.10.2019 21:00:00 - - - - - - - - - - - - - - -
21.10.2019 20:00:00 - - - - - - - - - - - - - - -
21.10.2019 19:00:00 - - - - - - - - - - - - - - -
21.10.2019 18:00:00 - - - - - - - - - - - - - - -
21.10.2019 17:00:00 - - - - - - - - - - - - - - -
21.10.2019 16:00:00 - - - - - - - - - - - - - - -
21.10.2019 15:00:00 - - - - - - - - - - - - - - -
21.10.2019 14:00:00 - - - - - - - - - - - - - - -
21.10.2019 13:00:00 - - - - - - - - - - - - - - -
21.10.2019 12:00:00 - - - - - - - - - - - - - - -
21.10.2019 11:00:00 - - - - - - - - - - - - - - -
21.10.2019 10:00:00 - - - - - - - - - - - - - - -
21.10.2019 09:00:00 - - - - - - - - - - - - - - -
21.10.2019 08:00:00 - - - - - - - - - - - - - - -
21.10.2019 07:00:00 - - - - - - - - - - - - - - -
21.10.2019 06:00:00 - - - - - - - - - - - - - - -
21.10.2019 05:00:00 - - - - - - - - - - - - - - -
21.10.2019 04:00:00 - - - - - - - - - - - - - - -
21.10.2019 03:00:00 - - - - - - - - - - - - - - -
21.10.2019 02:00:00 - - - - - - - - - - - - - - -
21.10.2019 01:00:00 - - - - - - - - - - - - - - -
21.10.2019 00:00:00 - - - - - - - - - - - - - - -
20.10.2019 23:00:00 - - - - - - - - - - - - - - -
20.10.2019 22:00:00 - - - - - - - - - - - - - - -
20.10.2019 21:00:00 - - - - - - - - - - - - - - -
20.10.2019 20:00:00 - - - - - - - - - - - - - - -
20.10.2019 19:00:00 - - - - - - - - - - - - - - -
20.10.2019 18:00:00 - - - - - - - - - - - - - - -
20.10.2019 17:00:00 - - - - - - - - - - - - - - -
20.10.2019 16:00:00 - - - - - - - - - - - - - - -
20.10.2019 15:00:00 - - - - - - - - - - - - - - -
20.10.2019 14:00:00 - - - - - - - - - - - - - - -
20.10.2019 13:00:00 - - - - - - - - - - - - - - -
20.10.2019 12:00:00 - - - - - - - - - - - - - - -
20.10.2019 11:00:00 - - - - - - - - - - - - - - -
20.10.2019 10:00:00 - - - - - - - - - - - - - - -
20.10.2019 09:00:00 - - - - - - - - - - - - - - -
20.10.2019 08:00:00 - - - - - - - - - - - - - - -
20.10.2019 07:00:00 - - - - - - - - - - - - - - -
20.10.2019 06:00:00 - - - - - - - - - - - - - - -
20.10.2019 05:00:00 - - - - - - - - - - - - - - -
20.10.2019 04:00:00 - - - - - - - - - - - - - - -
20.10.2019 03:00:00 - - - - - - - - - - - - - - -
20.10.2019 02:00:00 - - - - - - - - - - - - - - -
20.10.2019 01:00:00 - - - - - - - - - - - - - - -
20.10.2019 00:00:00 - - - - - - - - - - - - - - -
19.10.2019 23:00:00 - - - - - - - - - - - - - - -
19.10.2019 22:00:00 - - - - - - - - - - - - - - -
19.10.2019 21:00:00 - - - - - - - - - - - - - - -
19.10.2019 20:00:00 - - - - - - - - - - - - - - -
19.10.2019 19:00:00 - - - - - - - - - - - - - - -
19.10.2019 18:00:00 - - - - - - - - - - - - - - -
19.10.2019 17:00:00 - - - - - - - - - - - - - - -
19.10.2019 16:00:00 - - - - - - - - - - - - - - -
19.10.2019 15:00:00 - - - - - - - - - - - - - - -
19.10.2019 14:00:00 - - - - - - - - - - - - - - -
19.10.2019 13:00:00 - - - - - - - - - - - - - - -
19.10.2019 12:00:00 - - - - - - - - - - - - - - -
19.10.2019 11:00:00 - - - - - - - - - - - - - - -
19.10.2019 10:00:00 - - - - - - - - - - - - - - -
19.10.2019 09:00:00 - - - - - - - - - - - - - - -
19.10.2019 08:00:00 - - - - - - - - - - - - - - -
19.10.2019 07:00:00 - - - - - - - - - - - - - - -
19.10.2019 06:00:00 - - - - - - - - - - - - - - -
19.10.2019 05:00:00 - - - - - - - - - - - - - - -
19.10.2019 04:00:00 - - - - - - - - - - - - - - -
19.10.2019 03:00:00 - - - - - - - - - - - - - - -
19.10.2019 02:00:00 - - - - - - - - - - - - - - -
19.10.2019 01:00:00 - - - - - - - - - - - - - - -
19.10.2019 00:00:00 - - - - - - - - - - - - - - -
18.10.2019 23:00:00 - - - - - - - - - - - - - - -
18.10.2019 22:00:00 - - - - - - - - - - - - - - -
18.10.2019 21:00:00 - - - - - - - - - - - - - - -
18.10.2019 20:00:00 - - - - - - - - - - - - - - -
18.10.2019 19:00:00 - - - - - - - - - - - - - - -
18.10.2019 18:00:00 - - - - - - - - - - - - - - -
18.10.2019 17:00:00 - - - - - - - - - - - - - - -
18.10.2019 16:00:00 - - - - - - - - - - - - - - -
18.10.2019 15:00:00 - - - - - - - - - - - - - - -
18.10.2019 14:00:00 - - - - - - - - - - - - - - -
18.10.2019 13:00:00 - - - - - - - - - - - - - - -
18.10.2019 12:00:00 16,6 11,2 16,5 15,4 13,0 14,9 20 11 34 19 SSW 1007,9 48 17 0,0
18.10.2019 11:00:00 16,3 11,8 15,0 14,2 12,9 14,9 11 6 27 14 S 1008,2 62 19 0,0
18.10.2019 10:00:00 14,6 12,7 14,3 12,4 12,9 14,9 5 3 10 5 ENE 1008,6 52 1 0,0
18.10.2019 09:00:00 13,5 12,1 12,6 11,8 12,9 14,9 3 2 12 6 ESE 1008,9 40 0 0,0
18.10.2019 08:00:00 12,2 11,5 11,2 11,6 13,0 14,9 4 2 8 4 SE 1009,2 29 0 0,0
18.10.2019 07:00:00 12,5 11,5 11,2 11,4 13,2 14,9 5 3 12 6 NNE 1009,6 37 0 0,0
18.10.2019 06:00:00 12,3 11,1 10,9 11,1 13,3 14,9 3 2 8 4 SSW 1010,4 22 0 0,0
18.10.2019 05:00:00 12,4 10,7 9,0 11,4 13,5 14,9 3 2 21 11 SSW 1010,6 62 0 0,0
18.10.2019 04:00:00 13,1 11,3 11,4 11,7 13,7 14,9 14 8 21 11 SW 1010,8 69 0 0,0
18.10.2019 03:00:00 13,0 11,3 11,1 12,1 13,8 14,9 7 4 16 9 S 1011,1 71 0 0,0
18.10.2019 02:00:00 13,8 11,6 11,7 12,7 14,0 14,9 9 5 18 10 SSW 1011,6 61 0 0,0
18.10.2019 01:00:00 14,2 12,3 12,0 13,6 14,0 14,9 6 3 18 10 SSW 1011,4 69 0 0,0
18.10.2019 00:00:00 14,6 13,0 13,6 13,8 14,1 14,9 8 5 14 7 S 1011,7 51 0 0,1
17.10.2019 23:00:00 14,5 13,0 13,6 13,9 14,1 14,9 7 4 19 10 S 1011,8 4,1 0 0,0
17.10.2019 22:00:00 14,8 12,7 13,7 14,0 14,2 14,9 6 3 15 8 S 1011,6 73 0 0,0
17.10.2019 21:00:00 14,0 13,2 13,0 14,2 14,2 14,9 5 3 8 4 ESE 1011,5 38 0 0,0
17.10.2019 20:00:00 14,5 12,9 13,6 14,3 14,3 14,9 7 4 14 7 SSE 1011,6 70 0 0,0
17.10.2019 19:00:00 14,7 13,2 13,8 14,7 14,3 14,9 5 3 18 10 S 1011,8 13 0 0,5
17.10.2019 18:00:00 14,9 13,6 14,2 15,0 14,2 14,9 9 5 12 7 SE 1011,7 44 0 1,0

tt = Température de l'air
td = dewpoint
tt 5cm = Température de l'air 5cm
tt -5cm = Température de l'air -5cm
tt -20cm = Température de l'air -20cm
tt -100cm = Température de l'air -100cm
ff = Vitesse du vent
fx = gusts
dd = Direction du vent
ppp = reduced air pressure
vv = visibility
sd = Ensoleillement
rr = Quantités de précipitations

stations d'obs. à proximité